[[{"header":{"parameterUnit":"m.s-1","parameterCategory":1,"la1":30.2991,"la2":30.254,"lo1":-89.0895,"lo2":-89.0444,"dy":0.0017,"dx":0.0017,"nx":28,"ny":28,"refTime":"2024-12-10T09:00:00:Z","depth":0,"parameterNumber":2,"parameterNumberName":"U-component_of_WINDS"},"data":[0,0,0,0,0,0,0,0,0,0,0,0,0,0,0,0,0,0,0,0,0,0,0,0,0,0,0,0,0,0,0,0,0,0,0,0,0,0,0,0,0,0,0,0,0,0,0,0,0,0,0,0,0,0,0,0,0,0,2.1417,2.1418,0,2.1487,2.1488,2.1489,2.1445,2.1443,2.1441,2.1439,2.1511,2.1515,2.1519,0,0,0,0,0,0,0,0,0,0,0,0,0,2.1248,2.1252,2.1417,2.1418,2.1419,2.1487,2.1488,2.1489,2.1445,2.1443,2.1441,2.1438,2.151,2.1514,2.1519,0,0,0,0,0,0,0,0,0,0,0,0,0,2.132,2.1253,2.1417,2.1406,2.1405,2.1487,2.1488,2.1489,2.1446,2.1443,2.144,2.1437,2.1508,2.1514,2.152,2.1617,0,0,2.1537,2.154,0,0,0,0,0,0,0,0,2.1316,2.1326,2.1406,2.1406,2.1406,2.1454,2.1455,2.1532,2.1447,2.1431,2.1439,2.1435,2.1495,2.1501,2.1521,2.162,2.1623,2.1538,2.1541,2.1544,2.1545,0,0,0,0,0,0,0,2.1311,2.1323,2.1445,2.1408,2.1408,2.1397,2.1404,2.1469,2.1479,2.1432,2.1429,2.1438,2.1494,2.1516,2.1523,2.1624,2.1538,2.1543,2.1546,2.1548,2.1807,2.1811,0,0,0,0,0,0,2.1307,2.1319,2.1443,2.1447,2.1353,2.1403,2.1411,2.1442,2.1478,2.1481,2.144,2.1435,2.1508,2.1516,2.1525,2.1642,2.1544,2.1549,2.1552,2.1804,2.1808,2.1812,0,0,0,0,0,0,2.1304,2.1318,2.144,2.1382,2.1397,2.1409,2.1445,2.1445,2.1466,2.1485,2.1486,2.146,2.1505,2.1517,2.1594,2.1644,2.1552,2.1557,2.18,2.1805,2.181,2.1876,0,0,0,0,0,0,2.1299,2.1317,2.1354,2.1384,2.14,2.1508,2.1448,2.1448,2.1476,2.1471,2.1504,2.1507,2.1504,2.1586,2.16,2.165,2.1561,2.1796,2.1802,2.1808,2.1869,2.1883,2.1894,0,0,0,0,0,2.1293,2.1369,2.1356,2.1371,2.1446,2.1511,2.152,2.1515,2.1481,2.1518,2.153,2.1505,2.1636,2.1594,2.161,2.1662,2.1793,2.18,2.1808,2.1864,2.188,2.1894,0,0,0,0,0,0,2.1345,2.1373,2.1358,2.1447,2.1477,2.1503,2.155,2.1533,2.1573,2.1566,2.1559,2.1567,2.1648,2.1663,2.1616,2.1759,2.1709,2.172,2.1746,2.1762,2.1774,2.1768,2.1566,0,0,0,0,0,2.1367,2.1417,2.1438,2.1514,2.153,2.1538,2.1565,2.1559,2.159,2.1603,2.162,2.1651,2.1699,2.1731,2.1776,2.1871,2.1878,2.1915,2.1927,2.1937,2.1947,2.2,2.2017,2.1837,2.1837,2.1837,0,0,2.1412,2.1434,2.1465,2.1525,2.1548,2.16,2.1548,2.1606,2.1645,2.1611,2.1686,2.17,2.1734,2.1821,2.1861,2.1836,2.1998,2.1947,2.1955,2.1959,2.2009,2.2026,2.2041,2.1843,2.1842,2.1841,0,0,2.1522,2.1543,2.1609,2.1633,2.1668,2.1672,2.1688,2.1718,2.1726,2.1801,2.1777,2.1824,2.1907,2.1932,2.1956,2.2078,2.2058,2.2093,2.2157,2.2209,2.2223,2.2235,2.2279,2.2295,2.2102,2.2103,2.2103,0,2.1574,2.1651,2.1645,2.1704,2.1732,2.1704,2.1772,2.1795,2.1844,2.1863,2.1835,2.194,2.1961,2.2054,2.2084,2.2104,2.2123,2.2089,2.2221,2.2234,2.2245,2.2287,2.2304,2.2107,2.2106,2.2106,2.2105,0,2.1714,2.1769,2.1818,2.1865,2.1898,2.1961,2.1965,2.1999,2.1991,2.1999,2.2076,2.2101,2.2151,2.2173,2.2165,2.2266,2.225,2.2222,2.2172,2.2266,2.2306,2.2322,2.2113,2.2111,2.211,2.2109,0,0,2.1858,2.1902,2.192,2.1942,2.1979,2.2021,2.2084,2.2133,2.2163,2.2198,2.225,2.2322,2.2297,2.2324,2.2319,2.2364,2.246,2.2331,2.2331,2.2354,2.2574,2.2595,2.2614,2.2447,2.245,2.2452,2.2571,0,2.197,2.2079,2.2076,2.2177,2.2228,2.2204,2.2258,2.2287,2.2297,2.2342,2.2352,2.2404,2.2366,2.2383,2.2426,2.2439,2.2504,2.243,2.2497,2.2499,2.2489,2.2634,2.2657,2.2768,2.2587,2.2589,2.2591,0,2.2116,2.2156,2.2262,2.2293,2.2315,2.2364,2.2409,2.2452,2.2486,2.2489,2.2521,2.2509,2.2573,2.2522,2.2611,2.2561,2.2588,2.2599,2.2603,2.2609,2.2551,2.2645,2.2803,2.282,2.2615,2.2613,2.2612,0,2.2211,2.2291,2.2366,2.2385,2.2423,2.2458,2.2476,2.2506,2.2536,2.2576,2.2596,2.2643,2.2669,2.2707,2.2708,2.267,2.2799,2.2747,2.2805,2.2805,2.2833,2.2831,2.2998,2.285,2.2849,2.2849,2.2849,0,2.2337,2.2404,2.2409,2.2455,2.2529,2.2525,2.2599,2.2613,2.2641,2.2689,2.2671,2.2718,2.2717,2.2764,2.2766,2.284,2.2852,2.2857,2.2857,2.2859,2.2859,2.2877,2.287,2.2853,2.2852,2.2852,2.2851,0,2.2456,2.2462,2.2542,2.2572,2.2581,2.2634,2.266,2.2704,2.2712,2.2774,2.2789,2.2802,2.2857,2.2863,2.2926,2.2928,2.3018,2.3009,2.3007,2.3005,2.3063,2.3058,2.3248,2.3273,2.3108,2.311,2.3111,0,2.2536,2.2587,2.2622,2.2654,2.2673,2.2724,2.2755,2.2753,2.2787,2.2829,2.2869,2.2922,2.2964,2.3054,2.307,2.3119,2.3112,2.3175,2.3119,2.312,2.3113,2.3111,2.3116,2.3186,2.3187,2.3189,2.319,0,2.2679,2.2679,2.2725,2.2772,2.281,2.2846,2.2881,2.2908,2.2911,2.2949,2.3006,2.3039,2.3104,2.3158,2.3207,2.3225,2.3209,2.3208,2.3224,2.3227,2.3224,2.3227,2.3037,2.3203,2.3202,2.3201,2.32,2.32,2.2781,2.2825,2.2858,2.2909,2.2935,2.2968,2.3011,2.3025,2.3072,2.3125,2.3122,2.3184,2.3218,2.3281,2.3304,2.3353,2.3332,2.3355,2.3361,2.3367,2.3373,2.3216,2.3362,2.3362,2.3361,2.3361,2.3361,0,2.2923,2.2943,2.299,2.3039,2.308,2.3061,2.3099,2.3134,2.319,2.3222,2.3264,2.333,2.3382,2.3402,2.3454,2.349,2.3483,2.3503,2.3501,2.3506,2.3389,2.337,2.3507,2.3507,2.3507,2.3507,2.3507,2.3507,2.3002,2.3076,2.3081,2.3169,2.3188,2.3249,2.3272,2.3303,2.3329,2.3403,2.3446,2.3459,2.3487,2.3541,2.3588,2.3593,2.3613,2.3636,2.3638,2.3528,2.3514,2.3499,2.3482,2.364,2.3641,2.375,2.3752,2.3752]},{"header":{"parameterUnit":"m.s-1","parameterCategory":1,"la1":30.2991,"la2":30.254,"lo1":-89.0895,"lo2":-89.0444,"dy":0.0017,"dx":0.0017,"nx":28,"ny":28,"refTime":"2024-12-10T09:00:00:Z","depth":0,"parameterNumber":3,"parameterNumberName":"V-component_of_WINDS"},"data":[0,0,0,0,0,0,0,0,0,0,0,0,0,0,0,0,0,0,0,0,0,0,0,0,0,0,0,0,0,0,0,0,0,0,0,0,0,0,0,0,0,0,0,0,0,0,0,0,0,0,0,0,0,0,0,0,0,0,-4.3813,-4.3814,0,-4.3975,-4.3977,-4.3979,-4.393,-4.3927,-4.3924,-4.392,-4.4088,-4.4096,-4.4103,0,0,0,0,0,0,0,0,0,0,0,0,0,-4.3461,-4.3467,-4.3812,-4.3814,-4.3816,-4.3975,-4.3977,-4.398,-4.3931,-4.3927,-4.3923,-4.3919,-4.4086,-4.4095,-4.4104,0,0,0,0,0,0,0,0,0,0,0,0,0,-4.3618,-4.3469,-4.3812,-4.3811,-4.3813,-4.3975,-4.3977,-4.398,-4.3932,-4.3927,-4.3922,-4.3917,-4.4083,-4.4094,-4.4105,-4.4278,0,0,-4.414,-4.4145,0,0,0,0,0,0,0,0,-4.3609,-4.363,-4.3809,-4.3812,-4.3814,-4.3927,-4.3915,-4.408,-4.3933,-4.3887,-4.392,-4.3914,-4.4039,-4.4054,-4.4095,-4.4286,-4.4293,-4.4141,-4.4148,-4.4153,-4.4156,0,0,0,0,0,0,0,-4.3598,-4.3623,-4.3877,-4.3812,-4.3815,-4.3803,-4.382,-4.3946,-4.399,-4.389,-4.3887,-4.3907,-4.4039,-4.4085,-4.4099,-4.4295,-4.4141,-4.4151,-4.4158,-4.4163,-4.4637,-4.4642,0,0,0,0,0,0,-4.3585,-4.3614,-4.3872,-4.3882,-4.3696,-4.3814,-4.3832,-4.3896,-4.3988,-4.3997,-4.3911,-4.3904,-4.4067,-4.4086,-4.4105,-4.4314,-4.4153,-4.4164,-4.417,-4.4631,-4.4638,-4.4644,0,0,0,0,0,0,-4.3578,-4.3609,-4.3865,-4.3747,-4.3779,-4.3825,-4.3897,-4.3902,-4.3947,-4.4004,-4.4011,-4.395,-4.4064,-4.4089,-4.4235,-4.4319,-4.4169,-4.4179,-4.4624,-4.4633,-4.4641,-4.4733,0,0,0,0,0,0,-4.3568,-4.3606,-4.3672,-4.3749,-4.3786,-4.3993,-4.3902,-4.3909,-4.3967,-4.3959,-4.4042,-4.4051,-4.4062,-4.4219,-4.4247,-4.4332,-4.4188,-4.4617,-4.4628,-4.4638,-4.4722,-4.4743,-4.4761,0,0,0,0,0,-4.3556,-4.3692,-4.3676,-4.3707,-4.3869,-4.3998,-4.4019,-4.4029,-4.3974,-4.4041,-4.4077,-4.4048,-4.4305,-4.4234,-4.4265,-4.4355,-4.4612,-4.4625,-4.4637,-4.4714,-4.4739,-4.4761,0,0,0,0,0,0,-4.3623,-4.3702,-4.3685,-4.385,-4.3918,-4.3989,-4.4074,-4.4056,-4.4141,-4.413,-4.4139,-4.4158,-4.4309,-4.4346,-4.4266,-4.4528,-4.445,-4.447,-4.4498,-4.4522,-4.4541,-4.4529,-4.4198,0,0,0,0,0,-4.3657,-4.3755,-4.3818,-4.3958,-4.3993,-4.4028,-4.4084,-4.4086,-4.4157,-4.4186,-4.4232,-4.4303,-4.4399,-4.4463,-4.4555,-4.4727,-4.4745,-4.4805,-4.4824,-4.484,-4.4857,-4.4952,-4.4979,-4.4686,-4.4686,-4.4686,0,0,-4.3729,-4.3784,-4.3845,-4.3973,-4.4026,-4.4127,-4.4052,-4.4163,-4.4239,-4.4202,-4.4344,-4.4381,-4.446,-4.4621,-4.4694,-4.4657,-4.4942,-4.4856,-4.4868,-4.4877,-4.4968,-4.4996,-4.502,-4.4695,-4.4693,-4.4692,0,0,-4.3911,-4.3962,-4.4084,-4.4139,-4.4219,-4.4242,-4.4271,-4.4346,-4.437,-4.4512,-4.4487,-4.4577,-4.4743,-4.4801,-4.4852,-4.5056,-4.5033,-4.5086,-4.5188,-4.528,-4.5303,-4.5324,-4.5398,-4.5424,-4.5103,-4.5103,-4.5103,0,-4.399,-4.4142,-4.415,-4.4263,-4.432,-4.4292,-4.4416,-4.4468,-4.4575,-4.4616,-4.4572,-4.4781,-4.4832,-4.5006,-4.5056,-4.5098,-4.5132,-4.5077,-4.5299,-4.532,-4.5339,-4.541,-4.5438,-4.5109,-4.5108,-4.5108,-4.5107,0,-4.4236,-4.4341,-4.443,-4.4534,-4.4601,-4.4719,-4.4745,-4.4812,-4.4809,-4.4836,-4.4981,-4.5042,-4.5146,-4.5187,-4.5184,-4.5361,-4.5336,-4.5296,-4.5219,-4.5373,-4.544,-4.5467,-4.5118,-4.5116,-4.5114,-4.5112,0,0,-4.4466,-4.4572,-4.4605,-4.4652,-4.4739,-4.4821,-4.4938,-4.5039,-4.5097,-4.5172,-4.5271,-4.5412,-4.5376,-4.5434,-4.5438,-4.5519,-4.5678,-4.5469,-4.5471,-4.5507,-4.5878,-4.5908,-4.5939,-4.5663,-4.5668,-4.5672,-4.5872,0,-4.4656,-4.4861,-4.4872,-4.5059,-4.5157,-4.5131,-4.5233,-4.5298,-4.5327,-4.5415,-4.5446,-4.5547,-4.5491,-4.5526,-4.5605,-4.5642,-4.5753,-4.5628,-4.5756,-4.576,-4.5738,-4.5974,-4.6006,-4.6191,-4.5898,-4.5902,-4.5905,0,-4.4906,-4.4988,-4.5185,-4.5258,-4.53,-4.5391,-4.5486,-4.557,-4.5643,-4.5658,-4.5723,-4.5715,-4.5836,-4.5754,-4.5921,-4.5835,-4.5888,-4.5914,-4.5922,-4.5935,-4.5843,-4.5994,-4.625,-4.6279,-4.5946,-4.5943,-4.594,0,-4.5055,-4.5215,-4.5353,-4.5394,-4.5483,-4.5548,-4.5589,-4.5657,-4.5717,-4.58,-4.5839,-4.5935,-4.5987,-4.6062,-4.608,-4.6019,-4.6247,-4.6167,-4.6264,-4.6264,-4.6314,-4.6311,-4.6583,-4.6347,-4.6346,-4.6346,-4.6345,0,-4.5267,-4.5388,-4.5421,-4.5507,-4.5643,-4.5653,-4.5788,-4.5823,-4.5885,-4.5977,-4.5961,-4.6048,-4.6066,-4.6158,-4.6173,-4.6309,-4.6333,-4.6349,-4.6352,-4.6351,-4.6349,-4.6387,-4.6375,-4.6353,-4.6352,-4.635,-4.6349,0,-4.5456,-4.5483,-4.5633,-4.5705,-4.5726,-4.5823,-4.5885,-4.5967,-4.5994,-4.6111,-4.6139,-4.6181,-4.6288,-4.6313,-4.644,-4.645,-4.6612,-4.6602,-4.6588,-4.6587,-4.6684,-4.6675,-4.6991,-4.7033,-4.6768,-4.677,-4.6772,0,-4.559,-4.5683,-4.5765,-4.5826,-4.5869,-4.5967,-4.6028,-4.6043,-4.6108,-4.6199,-4.627,-4.6375,-4.6459,-4.6631,-4.6673,-4.6771,-4.6763,-4.6867,-4.6778,-4.6775,-4.6766,-4.6761,-4.6771,-4.6885,-4.6887,-4.689,-4.6892,0,-4.5826,-4.5834,-4.5923,-4.6018,-4.6092,-4.6167,-4.6239,-4.629,-4.6314,-4.6388,-4.6497,-4.6563,-4.6692,-4.6797,-4.6895,-4.6936,-4.6919,-4.6919,-4.6947,-4.6948,-4.6936,-4.6945,-4.6635,-4.6912,-4.691,-4.6909,-4.6908,-4.6907,-4.5992,-4.6074,-4.6145,-4.6245,-4.63,-4.6368,-4.6449,-4.6486,-4.6576,-4.6683,-4.6686,-4.6805,-4.6876,-4.7006,-4.7053,-4.7147,-4.7115,-4.7155,-4.7166,-4.7176,-4.7185,-4.692,-4.7165,-4.7164,-4.7164,-4.7163,-4.7163,0,-4.6227,-4.6272,-4.6364,-4.6465,-4.6544,-4.6519,-4.6598,-4.6666,-4.677,-4.6838,-4.6922,-4.7047,-4.7149,-4.7199,-4.7299,-4.7365,-4.7359,-4.7391,-4.7387,-4.7397,-4.7207,-4.7173,-4.7393,-4.7393,-4.7393,-4.7393,-4.7393,-4.7393,-4.6359,-4.6496,-4.6514,-4.6679,-4.6722,-4.6838,-4.6885,-4.6947,-4.7002,-4.7142,-4.7226,-4.7258,-4.732,-4.7425,-4.7517,-4.7529,-4.7567,-4.7603,-4.7612,-4.7433,-4.741,-4.7388,-4.7356,-4.7611,-4.7611,-4.7794,-4.7795,-4.7797]}]]